Time,TemperatureF,DewpointF,PressureIn,WindDirection,WindDirectionDegrees,WindSpeedMPH,WindSpeedGustMPH,Humidity,HourlyPrecipIn,Conditions,Clouds,dailyrainin,SoftwareType,DateUTC
2013-01-15 00:01:00,27.1,8.4,29.91,North,357,1.8,4.3,41,-99.99,,,-99.99,WSDL version 420,2013-01-15 06:01:00,
2013-01-15 00:07:00,27.1,8.3,29.91,North,4,2.9,6.0,40,-99.99,,,-99.99,WSDL version 420,2013-01-15 06:07:00,
2013-01-15 00:13:00,27.0,8.1,29.91,North,6,3.2,4.9,40,-99.99,,,-99.99,WSDL version 420,2013-01-15 06:13:00,
2013-01-15 00:19:00,27.0,8.1,29.91,North,360,2.2,4.9,40,-99.99,,,-99.99,WSDL version 420,2013-01-15 06:19:00,
2013-01-15 00:25:00,27.0,8.1,29.91,NNE,23,2.8,7.8,40,-99.99,,,-99.99,WSDL version 420,2013-01-15 06:25:00,
2013-01-15 00:31:00,27.0,8.1,29.91,North,356,3.3,6.0,40,-99.99,,,-99.99,WSDL version 420,2013-01-15 06:31:00,
2013-01-15 00:37:00,27.0,8.1,29.91,NNW,341,2.3,6.0,40,-99.99,,,-99.99,WSDL version 420,2013-01-15 06:37:00,
2013-01-15 00:43:00,27.0,8.1,29.91,North,349,3.0,7.2,40,-99.99,,,-99.99,WSDL version 420,2013-01-15 06:43:00,
2013-01-15 00:49:00,27.0,8.3,29.88,NNW,333,2.4,7.2,41,-99.99,,,-99.99,WSDL version 420,2013-01-15 06:49:00,
2013-01-15 00:55:00,27.0,8.6,29.88,NE,38,2.2,5.6,41,-99.99,,,-99.99,WSDL version 420,2013-01-15 06:55:00,
2013-01-15 01:01:00,27.0,8.6,29.88,North,351,3.7,5.4,41,-99.99,,,-99.99,WSDL version 420,2013-01-15 07:01:00,
2013-01-15 01:07:00,27.0,8.6,29.88,NNW,340,3.1,5.8,41,-99.99,,,-99.99,WSDL version 420,2013-01-15 07:07:00,
2013-01-15 01:13:00,27.0,8.6,29.88,North,354,1.8,5.8,41,-99.99,,,-99.99,WSDL version 420,2013-01-15 07:13:00,
2013-01-15 01:19:00,27.0,8.6,29.88,North,357,3.1,6.3,41,-99.99,,,-99.99,WSDL version 420,2013-01-15 07:19:00,
2013-01-15 01:25:00,26.9,8.5,29.88,NNW,338,2.7,5.8,41,-99.99,,,-99.99,WSDL version 420,2013-01-15 07:25:00,
2013-01-15 01:31:00,26.8,8.4,29.85,North,3,2.4,5.8,41,-99.99,,,-99.99,WSDL version 420,2013-01-15 07:31:00,
2013-01-15 01:37:00,26.8,8.4,29.85,North,358,3.0,4.7,41,-99.99,,,-99.99,WSDL version 420,2013-01-15 07:37:00,
2013-01-15 01:43:00,26.8,8.5,29.85,North,10,2.9,5.6,42,-99.99,,,-99.99,WSDL version 420,2013-01-15 07:43:00,
2013-01-15 01:49:00,26.6,8.7,29.88,North,3,2.9,5.6,42,-99.99,,,-99.99,WSDL version 420,2013-01-15 07:49:00,
2013-01-15 01:55:00,26.6,8.7,29.88,North,3,3.0,4.7,42,-99.99,,,-99.99,WSDL version 420,2013-01-15 07:55:00,
2013-01-15 02:01:00,26.5,8.7,29.85,North,360,3.1,5.8,42,-99.99,,,-99.99,WSDL version 420,2013-01-15 08:01:00,
2013-01-15 02:07:00,26.4,8.6,29.85,NE,34,2.6,5.8,42,-99.99,,,-99.99,WSDL version 420,2013-01-15 08:07:00,
2013-01-15 02:13:00,26.4,8.6,29.85,NNW,329,2.2,4.9,42,-99.99,,,-99.99,WSDL version 420,2013-01-15 08:13:00,
2013-01-15 02:19:00,26.4,8.7,29.85,NNW,347,2.6,5.4,43,-99.99,,,-99.99,WSDL version 420,2013-01-15 08:19:00,
2013-01-15 02:25:00,26.4,9.0,29.85,North,360,3.2,5.4,43,-99.99,,,-99.99,WSDL version 420,2013-01-15 08:25:00,
2013-01-15 02:31:00,26.4,9.0,29.85,NNE,13,3.1,5.4,43,-99.99,,,-99.99,WSDL version 420,2013-01-15 08:31:00,
2013-01-15 02:37:00,26.2,8.9,29.85,North,360,3.4,5.4,43,-99.99,,,-99.99,WSDL version 420,2013-01-15 08:37:00,
2013-01-15 02:43:00,26.2,8.8,29.85,North,349,2.2,4.7,43,-99.99,,,-99.99,WSDL version 420,2013-01-15 08:43:00,
2013-01-15 02:49:00,26.1,8.7,29.85,North,11,1.8,4.0,43,-99.99,,,-99.99,WSDL version 420,2013-01-15 08:49:00,
2013-01-15 02:55:00,26.1,8.7,29.85,North,349,3.0,6.3,43,-99.99,,,-99.99,WSDL version 420,2013-01-15 08:55:00,
2013-01-15 03:01:00,26.1,8.7,29.85,NNW,343,1.4,6.3,43,-99.99,,,-99.99,WSDL version 420,2013-01-15 09:01:00,
2013-01-15 03:07:00,26.1,8.7,29.85,ENE,58,1.6,2.9,43,-99.99,,,-99.99,WSDL version 420,2013-01-15 09:07:00,
2013-01-15 03:13:00,25.9,8.6,29.85,North,349,1.7,2.9,43,-99.99,,,-99.99,WSDL version 420,2013-01-15 09:13:00,
2013-01-15 03:19:00,25.9,8.5,29.85,North,357,1.6,4.3,43,-99.99,,,-99.99,WSDL version 420,2013-01-15 09:19:00,
2013-01-15 03:25:00,25.9,8.5,29.85,NNE,20,2.5,4.3,43,-99.99,,,-99.99,WSDL version 420,2013-01-15 09:25:00,
2013-01-15 03:31:00,25.9,8.5,29.83,North,11,2.2,4.5,43,-99.99,,,-99.99,WSDL version 420,2013-01-15 09:31:00,
2013-01-15 03:37:00,25.8,8.5,29.83,North,360,1.4,4.0,43,-99.99,,,-99.99,WSDL version 420,2013-01-15 09:37:00,
2013-01-15 03:43:00,25.7,8.4,29.83,East,79,2.1,4.0,43,-99.99,,,-99.99,WSDL version 420,2013-01-15 09:43:00,
2013-01-15 03:49:00,25.7,8.4,29.83,NNW,338,2.2,4.7,43,-99.99,,,-99.99,WSDL version 420,2013-01-15 09:49:00,
2013-01-15 03:55:00,25.6,8.3,29.83,NNE,17,2.7,4.7,43,-99.99,,,-99.99,WSDL version 420,2013-01-15 09:55:00,
2013-01-15 04:01:00,25.6,8.3,29.83,NW,315,1.5,3.6,43,-99.99,,,-99.99,WSDL version 420,2013-01-15 10:01:00,
2013-01-15 04:07:00,25.5,8.2,29.83,North,6,1.7,5.8,43,-99.99,,,-99.99,WSDL version 420,2013-01-15 10:07:00,
2013-01-15 04:13:00,25.5,8.2,29.83,North,358,2.7,5.8,43,-99.99,,,-99.99,WSDL version 420,2013-01-15 10:13:00,
2013-01-15 04:19:00,25.5,8.2,29.83,North,11,1.5,4.7,43,-99.99,,,-99.99,WSDL version 420,2013-01-15 10:19:00,
2013-01-15 04:25:00,25.5,8.5,29.83,NE,45,1.0,3.6,44,-99.99,,,-99.99,WSDL version 420,2013-01-15 10:25:00,
2013-01-15 04:31:00,25.5,8.6,29.83,North,360,1.8,3.1,44,-99.99,,,-99.99,WSDL version 420,2013-01-15 10:31:00,
2013-01-15 04:37:00,25.3,8.5,29.83,NNW,338,1.9,4.9,44,-99.99,,,-99.99,WSDL version 420,2013-01-15 10:37:00,
2013-01-15 04:43:00,25.3,8.5,29.83,NNE,20,2.2,4.9,44,-99.99,,,-99.99,WSDL version 420,2013-01-15 10:43:00,
2013-01-15 04:49:00,25.3,8.5,29.80,North,350,2.4,4.5,44,-99.99,,,-99.99,WSDL version 420,2013-01-15 10:49:00,
2013-01-15 04:55:00,25.3,8.5,29.80,NNE,23,2.9,4.5,44,-99.99,,,-99.99,WSDL version 420,2013-01-15 10:55:00,
2013-01-15 05:01:00,25.3,8.5,29.80,North,349,1.6,4.3,44,-99.99,,,-99.99,WSDL version 420,2013-01-15 11:01:00,
2013-01-15 05:07:00,25.4,8.5,29.80,NNE,25,1.1,6.3,44,-99.99,,,-99.99,WSDL version 420,2013-01-15 11:07:00,
2013-01-15 05:13:00,25.6,8.7,29.80,NNE,23,2.5,5.8,44,-99.99,,,-99.99,WSDL version 420,2013-01-15 11:13:00,
2013-01-15 05:19:00,25.5,8.7,29.80,NNE,23,1.8,5.8,44,-99.99,,,-99.99,WSDL version 420,2013-01-15 11:19:00,
2013-01-15 05:25:00,25.7,8.8,29.80,North,360,2.4,4.9,44,-99.99,,,-99.99,WSDL version 420,2013-01-15 11:25:00,
2013-01-15 05:31:00,25.7,9.2,29.80,North,3,2.9,6.3,45,-99.99,,,-99.99,WSDL version 420,2013-01-15 11:31:00,
2013-01-15 05:37:00,25.7,9.3,29.80,NE,53,2.4,6.3,45,-99.99,,,-99.99,WSDL version 420,2013-01-15 11:37:00,
2013-01-15 05:43:00,25.7,9.3,29.80,North,8,2.6,4.3,45,-99.99,,,-99.99,WSDL version 420,2013-01-15 11:43:00,
2013-01-15 05:49:00,25.8,9.4,29.80,NNE,28,1.3,3.6,46,-99.99,,,-99.99,WSDL version 420,2013-01-15 11:49:00,
2013-01-15 05:55:00,25.9,9.4,29.80,North,3,2.9,4.3,45,-99.99,,,-99.99,WSDL version 420,2013-01-15 11:55:00,
2013-01-15 06:01:00,26.0,10.0,29.80,NE,45,3.0,4.7,46,-99.99,,,-99.99,WSDL version 420,2013-01-15 12:01:00,
2013-01-15 06:07:00,26.1,10.0,29.80,NNE,23,2.9,6.3,46,-99.99,,,-99.99,WSDL version 420,2013-01-15 12:07:00,
2013-01-15 06:13:00,26.1,10.0,29.80,North,355,2.6,6.3,46,-99.99,,,-99.99,WSDL version 420,2013-01-15 12:13:00,
2013-01-15 06:19:00,26.1,10.0,29.80,North,354,2.9,5.8,46,-99.99,,,-99.99,WSDL version 420,2013-01-15 12:19:00,
2013-01-15 06:25:00,26.1,10.5,29.80,North,8,1.8,6.0,47,-99.99,,,-99.99,WSDL version 420,2013-01-15 12:25:00,
2013-01-15 06:31:00,26.1,10.5,29.83,North,360,1.5,4.0,47,-99.99,,,-99.99,WSDL version 420,2013-01-15 12:31:00,
2013-01-15 06:37:00,26.2,10.6,29.83,North,354,2.2,4.9,47,-99.99,,,-99.99,WSDL version 420,2013-01-15 12:37:00,
2013-01-15 06:43:00,26.2,10.6,29.83,NE,42,2.5,4.9,47,-99.99,,,-99.99,WSDL version 420,2013-01-15 12:43:00,
2013-01-15 06:49:00,26.3,10.9,29.83,NNE,27,2.6,4.7,48,-99.99,,,-99.99,WSDL version 420,2013-01-15 12:49:00,
2013-01-15 06:55:00,26.4,11.2,29.83,NNW,328,2.4,4.3,48,-99.99,,,-99.99,WSDL version 420,2013-01-15 12:55:00,
2013-01-15 07:01:00,26.5,11.3,29.83,NW,315,1.8,4.0,48,-99.99,,,-99.99,WSDL version 420,2013-01-15 13:01:00,
2013-01-15 07:07:00,26.6,11.4,29.83,NE,45,2.8,4.0,48,-99.99,,,-99.99,WSDL version 420,2013-01-15 13:07:00,
2013-01-15 07:13:00,26.7,11.5,29.83,NW,315,1.2,3.8,48,-99.99,,,-99.99,WSDL version 420,2013-01-15 13:13:00,
2013-01-15 07:19:00,26.8,11.6,29.80,NNE,13,2.9,4.3,48,-99.99,,,-99.99,WSDL version 420,2013-01-15 13:19:00,
2013-01-15 07:25:00,26.8,11.6,29.80,NNW,338,1.7,4.3,48,-99.99,,,-99.99,WSDL version 420,2013-01-15 13:25:00,
2013-01-15 07:31:00,26.8,11.6,29.83,North,358,2.3,4.0,48,-99.99,,,-99.99,WSDL version 420,2013-01-15 13:31:00,
2013-01-15 07:37:00,26.9,11.7,29.83,North,360,1.9,4.0,48,-99.99,,,-99.99,WSDL version 420,2013-01-15 13:37:00,
2013-01-15 07:43:00,27.0,11.7,29.83,NE,45,1.4,3.6,48,-99.99,,,-99.99,WSDL version 420,2013-01-15 13:43:00,
2013-01-15 07:49:00,27.0,11.8,29.83,North,8,2.2,3.6,48,-99.99,,,-99.99,WSDL version 420,2013-01-15 13:49:00,
2013-01-15 07:55:00,27.1,11.9,29.83,North,360,1.6,3.6,48,-99.99,,,-99.99,WSDL version 420,2013-01-15 13:55:00,
2013-01-15 08:01:00,27.3,12.0,29.83,NNW,332,2.0,4.3,48,-99.99,,,-99.99,WSDL version 420,2013-01-15 14:01:00,
2013-01-15 08:07:00,27.3,12.0,29.83,North,357,1.5,3.6,47,-99.99,,,-99.99,WSDL version 420,2013-01-15 14:07:00,
2013-01-15 08:13:00,27.4,11.8,29.83,NE,34,1.3,4.3,47,-99.99,,,-99.99,WSDL version 420,2013-01-15 14:13:00,
2013-01-15 08:19:00,27.4,11.7,29.83,NNW,333,2.5,5.8,47,-99.99,,,-99.99,WSDL version 420,2013-01-15 14:19:00,
2013-01-15 08:25:00,27.3,11.2,29.83,North,360,2.8,6.0,46,-99.99,,,-99.99,WSDL version 420,2013-01-15 14:25:00,
2013-01-15 08:31:00,27.2,10.9,29.83,North,360,3.8,5.4,45,-99.99,,,-99.99,WSDL version 420,2013-01-15 14:31:00,
2013-01-15 08:37:00,27.1,10.6,29.83,North,3,3.1,4.9,45,-99.99,,,-99.99,WSDL version 420,2013-01-15 14:37:00,
2013-01-15 08:43:00,27.1,10.6,29.83,NW,326,2.4,4.3,45,-99.99,,,-99.99,WSDL version 420,2013-01-15 14:43:00,
2013-01-15 08:49:00,27.1,10.6,29.83,North,360,3.1,5.8,45,-99.99,,,-99.99,WSDL version 420,2013-01-15 14:49:00,
2013-01-15 08:55:00,27.1,10.6,29.83,NE,34,2.6,4.9,45,-99.99,,,-99.99,WSDL version 420,2013-01-15 14:55:00,
2013-01-15 09:01:00,27.3,10.8,29.80,NE,55,2.3,4.9,45,-99.99,,,-99.99,WSDL version 420,2013-01-15 15:01:00,
2013-01-15 09:07:00,27.3,10.7,29.80,NNE,13,4.7,6.0,44,-99.99,,,-99.99,WSDL version 420,2013-01-15 15:07:00,
2013-01-15 09:13:00,27.5,10.5,29.80,NNW,340,2.5,6.0,44,-99.99,,,-99.99,WSDL version 420,2013-01-15 15:13:00,
2013-01-15 09:19:00,27.6,10.6,29.80,NNE,15,3.0,5.6,44,-99.99,,,-99.99,WSDL version 420,2013-01-15 15:19:00,
2013-01-15 09:25:00,27.7,10.7,29.80,North,8,2.8,6.3,44,-99.99,,,-99.99,WSDL version 420,2013-01-15 15:25:00,
2013-01-15 09:31:00,27.7,10.7,29.80,North,3,2.8,4.0,44,-99.99,,,-99.99,WSDL version 420,2013-01-15 15:31:00,
2013-01-15 09:37:00,27.8,10.8,29.80,North,6,2.5,4.7,44,-99.99,,,-99.99,WSDL version 420,2013-01-15 15:37:00,
2013-01-15 09:43:00,27.9,10.8,29.80,North,354,2.8,4.7,44,-99.99,,,-99.99,WSDL version 420,2013-01-15 15:43:00,
2013-01-15 09:49:00,27.9,10.5,29.80,North,5,3.2,4.9,43,-99.99,,,-99.99,WSDL version 420,2013-01-15 15:49:00,
2013-01-15 09:55:00,27.9,10.4,29.80,NE,45,2.0,4.9,43,-99.99,,,-99.99,WSDL version 420,2013-01-15 15:55:00,
2013-01-15 10:01:00,28.1,10.6,29.80,NNE,15,2.5,3.8,43,-99.99,,,-99.99,WSDL version 420,2013-01-15 16:01:00,
2013-01-15 10:07:00,28.3,10.9,29.80,SE,135,2.4,3.8,43,-99.99,,,-99.99,WSDL version 420,2013-01-15 16:07:00,
2013-01-15 10:13:00,28.5,10.9,29.80,North,353,1.5,3.6,43,-99.99,,,-99.99,WSDL version 420,2013-01-15 16:13:00,
2013-01-15 10:19:00,28.6,11.0,29.77,NNE,15,2.8,4.9,43,-99.99,,,-99.99,WSDL version 420,2013-01-15 16:19:00,
2013-01-15 10:25:00,28.6,11.0,29.77,NNE,13,3.1,7.4,43,-99.99,,,-99.99,WSDL version 420,2013-01-15 16:25:00,
2013-01-15 10:31:00,28.6,10.9,29.77,North,360,3.2,7.4,43,-99.99,,,-99.99,WSDL version 420,2013-01-15 16:31:00,
2013-01-15 10:37:00,28.8,11.2,29.77,North,356,2.8,4.9,43,-99.99,,,-99.99,WSDL version 420,2013-01-15 16:37:00,
2013-01-15 10:43:00,29.0,11.4,29.77,SSE,155,3.3,6.3,43,-99.99,,,-99.99,WSDL version 420,2013-01-15 16:43:00,
2013-01-15 10:49:00,29.2,11.7,29.74,NNW,340,2.0,6.3,43,-99.99,,,-99.99,WSDL version 420,2013-01-15 16:49:00,
2013-01-15 10:55:00,29.1,11.5,29.74,NNE,26,3.2,6.0,43,-99.99,,,-99.99,WSDL version 420,2013-01-15 16:55:00,
2013-01-15 11:01:00,29.1,11.5,29.74,North,358,2.9,5.4,43,-99.99,,,-99.99,WSDL version 420,2013-01-15 17:01:00,
2013-01-15 11:07:00,29.1,11.5,29.74,NW,315,2.5,5.4,43,-99.99,,,-99.99,WSDL version 420,2013-01-15 17:07:00,
2013-01-15 11:13:00,29.1,11.3,29.74,North,360,3.4,5.4,42,-99.99,,,-99.99,WSDL version 420,2013-01-15 17:13:00,
2013-01-15 11:19:00,29.3,11.6,29.74,NNW,341,3.0,5.4,43,-99.99,,,-99.99,WSDL version 420,2013-01-15 17:19:00,
2013-01-15 11:25:00,29.3,11.5,29.74,NW,311,2.7,5.6,43,-99.99,,,-99.99,WSDL version 420,2013-01-15 17:25:00,
2013-01-15 11:31:00,29.3,11.7,29.80,NW,315,3.4,6.9,43,-99.99,,,-99.99,WSDL version 420,2013-01-15 17:31:00,
2013-01-15 11:37:00,29.4,11.8,29.80,NW,309,2.9,6.5,43,-99.99,,,-99.99,WSDL version 420,2013-01-15 17:37:00,
2013-01-15 11:43:00,29.5,11.9,29.80,NNW,328,2.6,6.3,43,-99.99,,,-99.99,WSDL version 420,2013-01-15 17:43:00,
2013-01-15 11:49:00,29.5,12.3,29.80,North,356,3.6,5.6,44,-99.99,,,-99.99,WSDL version 420,2013-01-15 17:49:00,
2013-01-15 11:55:00,29.5,12.4,29.80,North,354,3.4,7.6,45,-99.99,,,-99.99,WSDL version 420,2013-01-15 17:55:00,
2013-01-15 12:01:00,29.3,12.2,29.77,NW,326,4.6,7.6,44,-99.99,,,-99.99,WSDL version 420,2013-01-15 18:01:00,
2013-01-15 12:07:00,29.2,12.1,29.77,NNW,338,5.0,8.1,44,-99.99,,,-99.99,WSDL version 420,2013-01-15 18:07:00,
2013-01-15 12:13:00,29.1,12.1,29.77,WNW,301,3.3,8.1,45,-99.99,,,-99.99,WSDL version 420,2013-01-15 18:13:00,
2013-01-15 12:19:00,28.8,11.7,29.80,NNW,346,4.1,10.3,44,-99.99,,,-99.99,WSDL version 420,2013-01-15 18:19:00,
2013-01-15 12:25:00,28.8,12.1,29.80,NW,325,3.7,10.3,45,-99.99,,,-99.99,WSDL version 420,2013-01-15 18:25:00,
2013-01-15 12:31:00,28.8,12.3,29.77,NNW,343,4.3,7.8,46,-99.99,,,-99.99,WSDL version 420,2013-01-15 18:31:00,
2013-01-15 12:37:00,28.9,12.7,29.77,NNW,346,3.3,7.8,46,-99.99,,,-99.99,WSDL version 420,2013-01-15 18:37:00,
2013-01-15 12:43:00,28.9,12.7,29.77,North,4,4.0,5.8,46,-99.99,,,-99.99,WSDL version 420,2013-01-15 18:43:00,
2013-01-15 12:49:00,28.9,12.9,29.74,North,350,3.8,5.8,47,-99.99,,,-99.99,WSDL version 420,2013-01-15 18:49:00,
2013-01-15 12:55:00,29.1,13.6,29.74,North,349,2.8,7.4,48,-99.99,,,-99.99,WSDL version 420,2013-01-15 18:55:00,
2013-01-15 13:01:00,29.3,14.3,29.74,NNW,332,4.4,6.5,49,-99.99,,,-99.99,WSDL version 420,2013-01-15 19:01:00,
2013-01-15 13:07:00,29.3,14.8,29.74,WNW,302,2.3,6.5,50,-99.99,,,-99.99,WSDL version 420,2013-01-15 19:07:00,
2013-01-15 13:13:00,29.3,14.8,29.74,North,350,3.0,6.5,50,-99.99,,,-99.99,WSDL version 420,2013-01-15 19:13:00,
2013-01-15 13:19:00,29.3,14.8,29.74,NNW,333,2.9,5.6,50,-99.99,,,-99.99,WSDL version 420,2013-01-15 19:19:00,
2013-01-15 13:25:00,29.3,14.8,29.74,NNW,345,2.3,5.4,50,-99.99,,,-99.99,WSDL version 420,2013-01-15 19:25:00,
2013-01-15 13:31:00,29.3,15.0,29.74,NW,323,1.6,5.4,51,-99.99,,,-99.99,WSDL version 420,2013-01-15 19:31:00,
2013-01-15 13:37:00,29.3,15.2,29.74,NE,34,2.1,3.6,51,-99.99,,,-99.99,WSDL version 420,2013-01-15 19:37:00,
2013-01-15 13:43:00,29.3,15.2,29.74,NNW,343,3.0,7.8,51,-99.99,,,-99.99,WSDL version 420,2013-01-15 19:43:00,
2013-01-15 13:49:00,29.3,15.2,29.71,NW,320,1.7,4.9,51,-99.99,,,-99.99,WSDL version 420,2013-01-15 19:49:00,
2013-01-15 13:55:00,29.5,15.5,29.71,NW,306,2.7,4.0,52,-99.99,,,-99.99,WSDL version 420,2013-01-15 19:55:00,
2013-01-15 14:01:00,29.5,15.7,29.74,WNW,300,2.8,4.3,52,-99.99,,,-99.99,WSDL version 420,2013-01-15 20:01:00,
2013-01-15 14:07:00,29.5,15.7,29.74,WSW,251,2.8,4.9,52,-99.99,,,-99.99,WSDL version 420,2013-01-15 20:07:00,
2013-01-15 14:13:00,29.5,16.1,29.74,NW,326,2.9,5.4,53,-99.99,,,-99.99,WSDL version 420,2013-01-15 20:13:00,
2013-01-15 14:19:00,29.5,15.9,29.77,West,281,3.1,5.4,52,-99.99,,,-99.99,WSDL version 420,2013-01-15 20:19:00,
2013-01-15 14:25:00,29.5,15.7,29.77,NW,323,2.7,10.1,52,-99.99,,,-99.99,WSDL version 420,2013-01-15 20:25:00,
2013-01-15 14:31:00,29.4,15.6,29.77,WNW,288,3.4,5.8,52,-99.99,,,-99.99,WSDL version 420,2013-01-15 20:31:00,
2013-01-15 14:37:00,29.5,15.9,29.77,WNW,289,3.2,5.8,53,-99.99,,,-99.99,WSDL version 420,2013-01-15 20:37:00,
2013-01-15 14:43:00,29.7,16.3,29.77,WSW,238,3.4,5.4,53,-99.99,,,-99.99,WSDL version 420,2013-01-15 20:43:00,
2013-01-15 14:49:00,29.7,16.3,29.74,West,270,2.5,7.6,53,-99.99,,,-99.99,WSDL version 420,2013-01-15 20:49:00,
2013-01-15 14:55:00,29.7,16.3,29.74,West,270,4.9,6.3,53,-99.99,,,-99.99,WSDL version 420,2013-01-15 20:55:00,
2013-01-15 15:01:00,29.7,16.2,29.74,West,270,3.0,6.3,52,-99.99,,,-99.99,WSDL version 420,2013-01-15 21:01:00,
2013-01-15 15:07:00,29.7,16.3,29.74,West,270,2.6,6.0,53,-99.99,,,-99.99,WSDL version 420,2013-01-15 21:07:00,
2013-01-15 15:13:00,29.8,16.5,29.74,West,270,3.9,5.8,53,-99.99,,,-99.99,WSDL version 420,2013-01-15 21:13:00,
2013-01-15 15:19:00,29.8,16.5,29.74,West,270,2.3,5.8,53,-99.99,,,-99.99,WSDL version 420,2013-01-15 21:19:00,
2013-01-15 15:25:00,29.8,16.8,29.74,West,270,0.7,4.3,54,-99.99,,,-99.99,WSDL version 420,2013-01-15 21:25:00,
2013-01-15 15:31:00,29.8,16.5,29.74,West,270,1.6,3.6,53,-99.99,,,-99.99,WSDL version 420,2013-01-15 21:31:00,
2013-01-15 15:37:00,29.8,16.5,29.74,West,270,2.5,5.4,53,-99.99,,,-99.99,WSDL version 420,2013-01-15 21:37:00,
2013-01-15 15:43:00,29.8,16.5,29.74,West,270,2.7,5.4,53,-99.99,,,-99.99,WSDL version 420,2013-01-15 21:43:00,
2013-01-15 15:49:00,29.7,16.3,29.74,West,270,2.1,4.0,53,-99.99,,,-99.99,WSDL version 420,2013-01-15 21:49:00,
2013-01-15 15:55:00,29.7,16.3,29.74,West,270,2.0,3.8,53,-99.99,,,-99.99,WSDL version 420,2013-01-15 21:55:00,
2013-01-15 16:01:00,29.7,16.3,29.71,West,270,2.6,3.1,53,-99.99,,,-99.99,WSDL version 420,2013-01-15 22:01:00,
2013-01-15 16:07:00,29.7,16.3,29.71,West,270,2.8,7.6,53,-99.99,,,-99.99,WSDL version 420,2013-01-15 22:07:00,
2013-01-15 16:13:00,29.7,16.3,29.71,West,270,2.3,7.6,53,-99.99,,,-99.99,WSDL version 420,2013-01-15 22:13:00,
2013-01-15 16:23:00,29.7,16.3,29.74,West,270,2.5,3.1,53,-99.99,,,-99.99,WSDL version 420,2013-01-15 22:23:00,
2013-01-15 16:29:00,29.8,16.4,29.74,West,270,1.6,3.4,53,-99.99,,,-99.99,WSDL version 420,2013-01-15 22:29:00,
2013-01-15 16:35:00,29.8,16.7,29.71,West,270,2.7,4.0,54,-99.99,,,-99.99,WSDL version 420,2013-01-15 22:35:00,
2013-01-15 16:41:00,29.8,16.8,29.71,West,270,2.5,4.0,54,-99.99,,,-99.99,WSDL version 420,2013-01-15 22:41:00,
2013-01-15 16:47:00,29.8,16.8,29.74,North,-999,-999.0,-999.0,54,-99.99,,,-99.99,WSDL version 420,2013-01-15 22:47:00,
2013-01-15 16:53:00,29.8,16.8,29.74,West,270,1.1,2.7,54,-99.99,,,-99.99,WSDL version 420,2013-01-15 22:53:00,
2013-01-15 16:59:00,29.8,16.8,29.74,West,270,1.7,2.2,54,-99.99,,,-99.99,WSDL version 420,2013-01-15 22:59:00,
2013-01-15 17:05:00,29.8,16.8,29.74,West,270,1.8,3.4,54,-99.99,,,-99.99,WSDL version 420,2013-01-15 23:05:00,
2013-01-15 17:11:00,29.8,16.8,29.74,West,270,2.0,3.4,54,-99.99,,,-99.99,WSDL version 420,2013-01-15 23:11:00,
2013-01-15 17:17:00,29.8,16.8,29.71,West,270,1.3,3.1,54,-99.99,,,-99.99,WSDL version 420,2013-01-15 23:17:00,
2013-01-15 17:23:00,29.9,16.9,29.71,West,270,1.3,2.0,54,-99.99,,,-99.99,WSDL version 420,2013-01-15 23:23:00,
2013-01-15 17:29:00,30.0,17.0,29.71,West,270,1.6,2.2,54,-99.99,,,-99.99,WSDL version 420,2013-01-15 23:29:00,
2013-01-15 17:35:00,30.0,17.0,29.74,West,270,0.0,2.2,54,-99.99,,,-99.99,WSDL version 420,2013-01-15 23:35:00,
2013-01-15 17:41:00,30.0,17.0,29.74,West,270,0.6,1.3,54,-99.99,,,-99.99,WSDL version 420,2013-01-15 23:41:00,
2013-01-15 17:47:00,30.0,17.0,29.71,West,270,0.9,2.0,54,-99.99,,,-99.99,WSDL version 420,2013-01-15 23:47:00,
2013-01-15 17:53:00,30.0,17.1,29.71,West,270,0.0,2.0,54,-99.99,,,-99.99,WSDL version 420,2013-01-15 23:53:00,
2013-01-15 17:59:00,30.1,17.5,29.71,West,270,0.0,0.9,55,-99.99,,,-99.99,WSDL version 420,2013-01-15 23:59:00,
2013-01-15 18:05:00,30.2,17.6,29.71,West,270,1.3,2.0,55,-99.99,,,-99.99,WSDL version 420,2013-01-16 00:05:00,
2013-01-15 18:11:00,30.2,17.6,29.71,West,270,0.0,2.5,55,-99.99,,,-99.99,WSDL version 420,2013-01-16 00:11:00,
2013-01-15 18:17:00,30.2,17.6,29.71,West,270,0.7,1.6,55,-99.99,,,-99.99,WSDL version 420,2013-01-16 00:17:00,
2013-01-15 18:23:00,30.2,17.6,29.71,West,270,0.8,2.2,56,-99.99,,,-99.99,WSDL version 420,2013-01-16 00:23:00,
2013-01-15 18:29:00,30.2,17.9,29.71,West,270,0.0,2.5,56,-99.99,,,-99.99,WSDL version 420,2013-01-16 00:29:00,
2013-01-15 18:35:00,30.2,17.9,29.71,North,-999,-999.0,-999.0,56,-99.99,,,-99.99,WSDL version 420,2013-01-16 00:35:00,
2013-01-15 18:41:00,30.2,17.9,29.71,West,270,0.3,1.6,56,-99.99,,,-99.99,WSDL version 420,2013-01-16 00:41:00,
2013-01-15 18:47:00,30.2,17.9,29.74,West,270,0.0,1.6,56,-99.99,,,-99.99,WSDL version 420,2013-01-16 00:47:00,
2013-01-15 18:53:00,30.2,17.9,29.74,West,270,0.4,1.6,56,-99.99,,,-99.99,WSDL version 420,2013-01-16 00:53:00,
2013-01-15 18:59:00,30.4,18.1,29.74,West,270,0.0,1.3,56,-99.99,,,-99.99,WSDL version 420,2013-01-16 00:59:00,
2013-01-15 19:05:00,30.4,18.1,29.74,West,270,0.9,2.2,56,-99.99,,,-99.99,WSDL version 420,2013-01-16 01:05:00,
2013-01-15 19:11:00,30.6,18.3,29.74,West,270,0.2,1.3,56,-99.99,,,-99.99,WSDL version 420,2013-01-16 01:11:00,
2013-01-15 19:17:00,30.6,18.3,29.74,West,270,0.0,1.3,56,-99.99,,,-99.99,WSDL version 420,2013-01-16 01:17:00,
2013-01-15 19:23:00,30.6,18.3,29.74,West,270,0.8,2.7,56,-99.99,,,-99.99,WSDL version 420,2013-01-16 01:23:00,
2013-01-15 19:29:00,30.6,18.6,29.74,West,270,1.1,2.5,57,-99.99,,,-99.99,WSDL version 420,2013-01-16 01:29:00,
2013-01-15 19:35:00,30.6,18.6,29.71,West,270,1.2,3.1,57,-99.99,,,-99.99,WSDL version 420,2013-01-16 01:35:00,
2013-01-15 19:41:00,30.6,18.6,29.71,West,270,0.4,3.1,57,-99.99,,,-99.99,WSDL version 420,2013-01-16 01:41:00,
2013-01-15 19:47:00,30.6,18.6,29.71,West,270,1.5,2.5,57,-99.99,,,-99.99,WSDL version 420,2013-01-16 01:47:00,
2013-01-15 19:53:00,30.6,18.6,29.71,West,270,1.5,2.9,57,-99.99,,,-99.99,WSDL version 420,2013-01-16 01:53:00,
2013-01-15 19:59:00,30.6,18.6,29.71,West,270,2.1,3.8,57,-99.99,,,-99.99,WSDL version 420,2013-01-16 01:59:00,
2013-01-15 20:05:00,30.6,19.0,29.71,West,270,1.2,3.8,58,-99.99,,,-99.99,WSDL version 420,2013-01-16 02:05:00,
2013-01-15 20:11:00,30.7,19.2,29.71,West,270,1.0,5.4,58,-99.99,,,-99.99,WSDL version 420,2013-01-16 02:11:00,
2013-01-15 20:17:00,30.7,19.2,29.74,West,270,1.6,2.7,58,-99.99,,,-99.99,WSDL version 420,2013-01-16 02:17:00,
2013-01-15 20:23:00,30.7,19.2,29.74,West,270,0.3,2.7,58,-99.99,,,-99.99,WSDL version 420,2013-01-16 02:23:00,
2013-01-15 20:29:00,30.7,19.2,29.74,West,270,0.2,3.1,58,-99.99,,,-99.99,WSDL version 420,2013-01-16 02:29:00,
2013-01-15 20:35:00,30.7,19.2,29.74,West,270,1.2,3.1,58,-99.99,,,-99.99,WSDL version 420,2013-01-16 02:35:00,
2013-01-15 20:41:00,30.7,19.2,29.74,West,270,0.7,2.5,58,-99.99,,,-99.99,WSDL version 420,2013-01-16 02:41:00,
2013-01-15 20:47:00,30.7,19.2,29.74,West,270,0.4,2.7,58,-99.99,,,-99.99,WSDL version 420,2013-01-16 02:47:00,
2013-01-15 20:53:00,30.9,19.6,29.74,West,270,0.0,2.5,59,-99.99,,,-99.99,WSDL version 420,2013-01-16 02:53:00,
2013-01-15 20:59:00,30.9,19.7,29.74,West,270,0.0,2.5,59,-99.99,,,-99.99,WSDL version 420,2013-01-16 02:59:00,
2013-01-15 21:05:00,31.0,19.8,29.74,West,270,0.0,0.9,59,-99.99,,,-99.99,WSDL version 420,2013-01-16 03:05:00,
2013-01-15 21:11:00,31.1,20.0,29.74,West,270,0.9,2.2,59,-99.99,,,-99.99,WSDL version 420,2013-01-16 03:11:00,
2013-01-15 21:17:00,31.1,19.9,29.71,West,270,2.6,3.8,59,-99.99,,,-99.99,WSDL version 420,2013-01-16 03:17:00,
2013-01-15 21:23:00,30.9,19.7,29.71,West,270,2.5,3.8,59,-99.99,,,-99.99,WSDL version 420,2013-01-16 03:23:00,
2013-01-15 21:29:00,30.9,19.7,29.71,West,270,2.3,3.1,59,-99.99,,,-99.99,WSDL version 420,2013-01-16 03:29:00,
2013-01-15 21:35:00,30.7,19.5,29.68,West,270,3.2,4.0,59,-99.99,,,-99.99,WSDL version 420,2013-01-16 03:35:00,
2013-01-15 21:41:00,30.7,19.5,29.68,West,270,1.1,4.3,59,-99.99,,,-99.99,WSDL version 420,2013-01-16 03:41:00,
2013-01-15 21:47:00,30.7,19.8,29.71,West,270,1.6,3.4,60,-99.99,,,-99.99,WSDL version 420,2013-01-16 03:47:00,
2013-01-15 21:53:00,30.6,19.7,29.71,West,270,2.2,3.6,60,-99.99,,,-99.99,WSDL version 420,2013-01-16 03:53:00,
2013-01-15 21:59:00,30.6,19.7,29.71,West,270,0.9,3.6,60,-99.99,,,-99.99,WSDL version 420,2013-01-16 03:59:00,
2013-01-15 22:05:00,30.6,19.7,29.71,West,270,1.4,2.9,60,-99.99,,,-99.99,WSDL version 420,2013-01-16 04:05:00,
2013-01-15 22:11:00,30.5,19.6,29.71,West,270,2.0,3.4,60,-99.99,,,-99.99,WSDL version 420,2013-01-16 04:11:00,
2013-01-15 22:17:00,30.4,19.5,29.71,West,270,1.3,3.4,60,-99.99,,,-99.99,WSDL version 420,2013-01-16 04:17:00,
2013-01-15 22:23:00,30.3,19.4,29.71,West,270,1.0,3.1,60,-99.99,,,-99.99,WSDL version 420,2013-01-16 04:23:00,
2013-01-15 22:29:00,30.2,19.4,29.71,West,270,1.7,3.6,60,-99.99,,,-99.99,WSDL version 420,2013-01-16 04:29:00,
2013-01-15 22:35:00,30.2,19.4,29.71,West,270,1.9,2.5,60,-99.99,,,-99.99,WSDL version 420,2013-01-16 04:35:00,
2013-01-15 22:41:00,30.2,19.4,29.71,West,270,0.9,2.0,60,-99.99,,,-99.99,WSDL version 420,2013-01-16 04:41:00,
2013-01-15 22:47:00,30.2,19.4,29.71,West,270,0.0,2.0,60,-99.99,,,-99.99,WSDL version 420,2013-01-16 04:47:00,
2013-01-15 22:53:00,30.2,19.4,29.71,West,270,2.0,3.1,60,-99.99,,,-99.99,WSDL version 420,2013-01-16 04:53:00,
2013-01-15 22:59:00,30.2,19.4,29.71,West,270,1.1,3.1,60,-99.99,,,-99.99,WSDL version 420,2013-01-16 04:59:00,
2013-01-15 23:02:00,30.2,19.4,29.71,West,270,0.0,3.1,60,-99.99,,,-99.99,WSDL version 420,2013-01-16 05:02:00,
2013-01-15 23:08:00,30.0,19.2,29.71,West,270,0.0,2.0,60,-99.99,,,-99.99,WSDL version 420,2013-01-16 05:08:00,
2013-01-15 23:14:00,30.0,19.4,29.71,West,270,1.3,2.5,61,-99.99,,,-99.99,WSDL version 420,2013-01-16 05:14:00,
2013-01-15 23:20:00,30.0,19.5,29.74,West,270,1.7,3.8,61,-99.99,,,-99.99,WSDL version 420,2013-01-16 05:20:00,
2013-01-15 23:26:00,30.0,19.5,29.74,West,270,1.6,3.8,61,-99.99,,,-99.99,WSDL version 420,2013-01-16 05:26:00,
2013-01-15 23:32:00,29.8,19.4,29.74,West,270,1.0,3.1,61,-99.99,,,-99.99,WSDL version 420,2013-01-16 05:32:00,
2013-01-15 23:38:00,29.8,19.3,29.74,West,270,2.1,3.6,61,-99.99,,,-99.99,WSDL version 420,2013-01-16 05:38:00,
2013-01-15 23:44:00,29.7,19.2,29.74,West,270,2.0,3.8,61,-99.99,,,-99.99,WSDL version 420,2013-01-16 05:44:00,
2013-01-15 23:50:00,29.7,19.1,29.71,West,270,1.2,4.3,60,-99.99,,,-99.99,WSDL version 420,2013-01-16 05:50:00,
2013-01-15 23:56:00,29.7,19.0,29.71,West,270,0.4,3.4,60,-99.99,,,-99.99,WSDL version 420,2013-01-16 05:56:00,